Weather History for Harrisburg, PA

Change the Weather History Date:

Saturday, November 26, 2011

  Actual Average Record
Temperature  
Mean Temperature 48 °F -  
Max Temperature 63 °F 48 °F 70 °F (1979)
Min Temperature 32 °F 33 °F 13 °F (1938)
Degree Days  
Heating Degree Days 18    
Moisture  
Dew Point 35 °F    
Average Humidity 68    
Maximum Humidity 89    
Minimum Humidity 34    
Precipitation  
Precipitation 0.00 in - - ()
Sea Level Pressure  
Sea Level Pressure 30.22 in    
Wind  
Wind Speed 0 mph (SW)    
Max Wind Speed 7 mph    
Max Gust Speed -    
Visibility 10 miles    
Events      
Averages and records for this station are not official NWS values.
T = Trace of Precipitation, MM = Missing Value Source: NWS Daily Summary

Daily Weather History Graph

Daily Weather History Graph

Search for Another Location

Airport:

Trip Planner

Search our weather history database for the weather conditions in past years. The results will help you decide how hot, cold, wet, or windy it might be!

Date:

Astronomy

Nov. 26, 2011 Rise Set
Actual Time 7:05 AM EST 4:43 PM EST
Civil Twilight 6:35 AM EST 5:13 PM EST
Nautical Twilight 6:01 AM EST 5:47 PM EST
Astronomical Twilight 5:29 AM EST 6:19 PM EST
Moon 8:34 AM EST (11/26) 6:12 PM EST (11/26)
Length of Visible Light 10h 38m
Length of Day
9h 38m
Waxing Crescent, 3% of the Moon is Illuminated
Nov 26
Waxing Crescent
Dec 2
First Quarter
Dec 10
Full
Dec 17
Last Quarter
Dec 24
New

Hourly Weather History & Observations

Time (EST) Temp. Windchill Dew Point Humidity Pressure Visibility Wind Dir Wind Speed Gust Speed Precip Events Conditions
1:56 AM 35.1 °F - 30.0 °F 82% 30.19 in 10.0 mi Calm Calm - N/A   Clear
2:56 AM 35.1 °F - 30.0 °F 82% 30.20 in 10.0 mi Calm Calm - N/A   Clear
3:56 AM 34.0 °F - 30.0 °F 85% 30.20 in 10.0 mi Calm Calm - N/A   Clear
4:56 AM 33.1 °F - 28.9 °F 85% 30.21 in 10.0 mi Calm Calm - N/A   Clear
5:56 AM 32.0 °F 28.7 °F 28.9 °F 88% 30.21 in 10.0 mi WSW 3.5 mph - N/A   Clear
6:56 AM 33.1 °F - 30.0 °F 89% 30.24 in 10.0 mi Calm Calm - N/A   Clear
7:56 AM 36.0 °F - 30.9 °F 82% 30.26 in 10.0 mi Calm Calm - N/A   Clear
8:56 AM 42.1 °F - 34.0 °F 73% 30.26 in 10.0 mi Calm Calm - N/A   Clear
9:56 AM 48.0 °F - 37.0 °F 66% 30.26 in 10.0 mi Calm Calm - N/A   Clear
10:56 AM 55.0 °F - 41.0 °F 59% 30.25 in 10.0 mi Calm Calm - N/A   Clear
11:56 AM 61.0 °F - 32.0 °F 34% 30.23 in 10.0 mi Calm Calm - N/A   Clear
12:56 PM 62.1 °F - 33.1 °F 34% 30.22 in 10.0 mi SW 6.9 mph - N/A   Clear
1:56 PM 63.0 °F - 36.0 °F 37% 30.20 in 10.0 mi Calm Calm - N/A   Clear
2:56 PM 59.0 °F - 37.9 °F 46% 30.20 in 10.0 mi Calm Calm - N/A   Clear
4:56 PM 55.0 °F - 37.0 °F 51% 30.20 in 10.0 mi Calm Calm - N/A   Clear
5:56 PM 52.0 °F - 37.9 °F 59% 30.21 in 10.0 mi Calm Calm - N/A   Clear
6:56 PM 50.0 °F - 39.0 °F 66% 30.22 in 10.0 mi Calm Calm - N/A   Clear
7:56 PM 48.9 °F - 39.0 °F 69% 30.21 in 10.0 mi Calm Calm - N/A   Clear
8:56 PM 46.9 °F - 39.0 °F 74% 30.21 in 10.0 mi Calm Calm - N/A   Clear
9:56 PM 45.0 °F - 37.9 °F 76% 30.20 in 10.0 mi Calm Calm - N/A   Clear
10:56 PM 43.0 °F - 37.9 °F 82% 30.19 in 10.0 mi Calm Calm - N/A   Clear
11:56 PM 41.0 °F - 36.0 °F 82% 30.17 in 10.0 mi Calm Calm - N/A   Clear